Location: Cahas Mountain Overlook
(37.0833°N, 80.1000°W)
Time: 05:10:31
(UTC-05:00)

Hubble Space Telescope - Visible Passes

Search period start: 29 November 2022 00:00
Search period end: 09 December 2022 00:00
Orbit: 530 x 534 km, 28.5° (Epoch: 28 November)

Date Brightness Start Highest point End Pass type
(mag) Time Alt. Az. Time Alt. Az. Time Alt. Az.
06 Dec 3.3 06:52:29 10° SSW 06:55:20 18° SSE 06:58:12 10° ESE visible
07 Dec 3.1 06:39:35 10° SW 06:42:36 20° S 06:45:38 10° ESE visible
08 Dec 3.6 04:49:27 11° SSE 04:49:29 11° SSE 04:50:39 10° SE visible
08 Dec 2.9 06:26:43 10° SW 06:29:53 22° S 06:33:02 10° ESE visible
